Regional Weather Roundup
Issued by NWS

Home | Current Version | Previous Version | Graphics & Text | Print | Product List | Glossary On
Versions: 1 2 3 4 5 6 7 8 9 10 11 12 13 14 15 16 17 18 19 20 21 22 23 24 25 26 27 28 29 30 31 32 33 34 35 36 37 38 39 40 41 42 43 44 45 46 47 48 49 50
000
ASUS45 KBOU 252307
RWRCO

WEATHER ROUNDUP FOR COLORADO
NATIONAL WEATHER SERVICE DENVER/BOULDER CO
400 PM MST SUN JAN 25 2015

NOTE: "FAIR" INDICATES FEW OR NO CLOUDS BELOW 12000 FEET WITH NO
SIGNIFICANT WEATHER AND/OR OBSTRUCTIONS TO VISIBILITY.

COZ001>005-013-030-031-260000-
...NORTHWEST COLORADO...

CITY           SKY/WX    TMP DP  RH WIND       PRES   REMARKS
CRAIG          PTSUNNY   40  28  62 NE8       30.35R
HAYDEN         PTSUNNY   39  25  56 CALM      30.35R
MEEKER         MOSUNNY   41  24  51 CALM      30.33F
MOUNT WERNER   NOT AVBL
STEAMBOAT SPGS PTSUNNY   39  27  60 CALM      30.35R
WALDEN         MOSUNNY   37  25  60 SW7       30.32R
$$

COZ006>008-011-260000-
...WEST CENTRAL VALLEYS...

CITY           SKY/WX    TMP DP  RH WIND       PRES   REMARKS
GRAND JUNCTION PTSUNNY   47  23  38 N5        30.32S
MONTROSE       MOSUNNY   46  19  34 NW8       30.34S
EAGLE          MOSUNNY   48  27  43 CALM      30.33S
RIFLE          SUNNY     49  23  36 W7        30.32S
DELTA          MOSUNNY   50  19  28 CALM      30.34R
NUCLA          MOSUNNY   54  23  30 NW8       30.33F
$$

COZ017>023-064>068-260000-
...SOUTHWEST COLORADO...

CITY           SKY/WX    TMP DP  RH WIND       PRES   REMARKS
DURANGO        SUNNY     46  23  40 NE5       30.27S
CORTEZ         SUNNY     51  24  34 SW12      30.25S
PAGOSA SPRINGS SUNNY     47  18  31 CALM      30.29S
TELLURIDE      PTSUNNY   42  20  41 SW5G16    30.38R
WOLF CREEK PAS NOT AVBL
$$

COZ009-010-012-014-032>034-037-058>063-260000-
...CENTRAL COLORADO...

CITY           SKY/WX    TMP DP  RH WIND       PRES   REMARKS
ASPEN          MOSUNNY   43  26  51 NW5       30.34R
BUENA VISTA    MOSUNNY   49  19  30 NW16G22   30.25S
COPPER MTN     MOSUNNY   32  21  64 W20G31    30.41S WCI  20
BERTHOUD PASS  PTSUNNY   19  14  79 NW26G38   30.37  WCI   1
COTTONWOOD PAS MOSUNNY   46  10  23 W15G24    30.31S
GUNNISON       MOSUNNY   21  10  63 E3        30.40S
KREMMLING      PTSUNNY   37  28  70 E5        30.35R
LEADVILLE      MOSUNNY   37  18  46 NW15      30.33R
MONARCH PASS   PTSUNNY   27  21  80 SW17G24   30.51R WCI  14
SALIDA         MOSUNNY   48  20  32 SW16      30.32S
SUNLIGHT       SUNNY     34  27  75 CALM      30.44S
WILKERSON PASS MOSUNNY   34  12  40 NW15G28   30.36R WCI  24
$$

COZ069>075-260000-
...SAN LUIS VALLEY/SANGRE DE CRISTO MOUNTAINS...

CITY           SKY/WX    TMP DP  RH WIND       PRES   REMARKS
ALAMOSA        MOSUNNY   48  19  31 N7        30.28R
LA VETA PASS   NOT AVBL
SAGUACHE       PTSUNNY   34  27  75 CALM      30.31R
$$

COZ035-036-038>040-260000-
...NORTHERN COLORADO FRONT RANGE...

CITY           SKY/WX    TMP DP  RH WIND       PRES   REMARKS
DENVER INTL AP PTSUNNY   59  25  27 W8        30.11R
DMNS CITY PARK   N/A     59  21  22 W13       30.12R
AURORA         PTSUNNY   57  24  27 NW8       30.13R
FRONT RANGE AP NOT AVBL
ERIE MUNI ARPT MOSUNNY   62  20  19 W9        30.10R
BOULDER MUN AP MOSUNNY   61  23  23 W6        30.10R
CENTENNIAL     PTSUNNY   56  22  26 N15       30.13R
BROOMFIELD     MOSUNNY   55  23  28 W23       30.13R
FORT COLLINS   MOSUNNY   57  28  33 NE6       30.11R
LONGMONT       MOSUNNY   64  22  20 NW8       30.11R
$$

COZ041-046-047-076>085-087-088-260000-
...PIKES PEAK/PALMER DIVIDE AND SOUTHERN FOOTHILLS...

CITY           SKY/WX    TMP DP  RH WIND       PRES   REMARKS
COLO. SPRINGS  PTSUNNY   51  25  36 S5        30.18R
A. F. ACADEMY  MOSUNNY   49  25  39 S9        30.17R
ELLICOTT       MOSUNNY  N/A N/A N/A CALM      30.16R
FALCON         MOSUNNY   50  25  38 SW6       30.20R
FORT CARSON    MOSUNNY   50  27  40 S7        30.16R
LIMON          SUNNY     53  26  35 N7        30.14R
MONUMENT HILL  SUNNY     48  28  46 NW5       30.17S
TRINIDAD       SUNNY     52  27  38 SE8       30.18S
$$

COZ042>045-048>051-090-091-260000-
...NORTHEAST COLORADO...

CITY           SKY/WX    TMP DP  RH WIND       PRES   REMARKS
GREELEY ARPT   MOSUNNY   55  30  38 SE6       30.09R
AKRON          CLEAR     50  32  50 W7        30.10R
BURLINGTON     PTCLDY    54  32  43 N9        30.11R
WRAY           CLEAR     56  31  38 N13       30.08R
STERLING       CLEAR     54  36  50 NW10      30.08R
HOLYOKE        CLEAR     55  32  41 N13G20    30.07S
FORT MORGAN    CLEAR     53  29  39 W3        30.11R
$$

COZ086-089-092>099-260000-
...SOUTHEAST COLORADO...

CITY           SKY/WX    TMP DP  RH WIND       PRES   REMARKS
PUEBLO         MOSUNNY   57  29  34 SE6       30.13F
LA JUNTA       SUNNY     58  27  30 S3        30.13F
LAMAR          SUNNY     57  31  37 W13       30.11F
SPRINGFIELD      N/A     56  27  32 NW13      30.14S
$$


USA.gov is the U.S. government's official web portal to all federal, state and local government web resources and services.